User: anonymous   Login
Location: Unspecified
(0.0000°N, 0.0000°E)
Time: 15:35:30
(UTC+02:00)
Language:

Iridium 75 - Orbit

View from above orbital plane
View from above orbital plane
View from above satellite
View from above satellite

Ground track
Ground track

The orbit data is extracted from the following two-line orbital elements,

1 25346U 98032E   16182.50825894  .00000032  00000-0  42712-5 0  9997
2 25346  86.3954  11.1287 0002240  88.6529 324.8833 14.34215455949268
Epoch (UTC): 30 June 2016 12:11:53
Eccentricity: 0.0002240
inclination: 86.3954°
perigee height: 776 km
apogee height: 779 km
right ascension of ascending node: 11.1287°
argument of perigee: 88.6529°
revolutions per day: 14.34215455
mean anomaly at epoch: 324.8833°
orbit number at epoch: 94926

The dashed part of the orbit path shows where the satellite is in the earth's shadow,  

DLR